Simultaneous Nadir Overpasses (SNOs) Predictions

Prediction of SNOs between GOES-16 and NOAA-19 Satellite Orbit:

Table of predicted SNOs for the next 14.0 days since TLE Epoch: 9/2/2023
Index Date Time (GOES-16) GOES-16 Lat,Lon NOAA-19 Lat,Lon Distance(km) Time Diff (sec)
1 09/03/2023 02:00:17 0.04, -75.20 -0.83, -79.00 433.36 80
2 09/04/2023 01:48:12 0.03, -75.21 -0.19, -76.05 96.92 80
3 09/05/2023 01:38:48 0.03, -75.22 0.51, -73.12 239.71 80
4 09/07/2023 13:56:02 -0.03, -75.25 0.54, -77.85 296.23 80
5 09/08/2023 13:46:37 -0.03, -75.26 -0.09, -74.90 40.66 80
6 09/09/2023 13:34:32 -0.03, -75.27 -0.78, -71.96 377.52 80
7 09/12/2023 01:51:56 0.03, -75.30 -0.32, -76.73 164.27 80
8 09/13/2023 01:42:32 0.03, -75.31 0.39, -73.80 173.57 80
9 09/15/2023 13:59:48 -0.04, -75.38 0.69, -78.53 359.58 80
